Regional Weather Roundup
Issued by NWS

Home | Current Version | Previous Version | Graphics & Text | Print | Product List | Glossary Off
Versions: 1 2 3 4 5 6 7 8 9 10 11 12 13 14 15 16 17 18 19 20 21 22 23 24 25 26 27 28 29 30 31 32 33 34 35 36 37 38 39 40 41 42 43 44 45 46 47 48 49 50

000
ASUS43 KDMX 050004
RWRIA

WEATHER ROUNDUP FOR IOWA
NATIONAL WEATHER SERVICE DES MOINES IA
  ISSUED BY NWS QUAD CITIES IA IL
600 PM CST WED MAR 04 2015

NOTE: "FAIR" INDICATES FEW OR NO CLOUDS BELOW 12,000 FEET WITH NO
SIGNIFICANT WEATHER AND/OR OBSTRUCTIONS TO VISIBILITY.

* - THESE STATIONS ARE NOT NWS STATIONS...THUS NOT UNDER NWS
QUALITY CONTROL.  THEY ALSO DO NOT REPORT WEATHER SUCH
AS PRECIPITATION OR FOG.

IAZ001>003-012>014-020>022-031>034-043>046-050100-
   NORTHWEST IOWA

CITY           SKY/WX    TMP DP  RH WIND       PRES   REMARKS
CARROLL *      MOCLDY    16   1  53 N18G25    30.32R WCI  -1
CHEROKEE *     PTCLDY    11  -3  54 NW15G23   30.33R WCI  -6
6HR MIN TEMP:  11; 6HR MAX TEMP:  21;

DENNISON *     CLEAR     14  -4  44 N14G21    30.31R WCI  -1
LE MARS *      CLEAR     12  -4  48 N20       30.36R WCI  -6
ORANGE CITY *  CLEAR     10  -6  48 NW16G23   30.32R WCI  -7
SHELDON *      PTCLDY     7  -4  61 NW18      30.32R WCI -12
SIOUX CITY     PTCLDY    16  -3  43 N18       30.35R WCI   0
6HR MIN TEMP:  16; 6HR MAX TEMP:  24; 6HR PCP: TRACE;

SPENCER        PTCLDY     9  -4  55 NW18      30.31R WCI -10
6HR MIN TEMP:   9; 6HR MAX TEMP:  21; 6HR PCP: TRACE;

STORM LAKE *   PTCLDY    10  -4  52 NW20      30.30R WCI  -8
$$

IAZ055>058-069>071-079>083-090>094-050100-
   SOUTHWEST IOWA

CITY           SKY/WX    TMP DP  RH WIND       PRES   REMARKS
ATLANTIC *     CLEAR     19   0  42 N18G24    30.32R WCI   4
AUDUBON *      CLEAR     16  -2  45 N13       30.32R WCI   2
CLARINDA *     CLEAR     27   0  31 NW15G24   30.31R WCI  15
COUNCIL BLFS * CLEAR     21  -2  35 NW13      30.31R WCI   9
CRESTON *      CLEAR     21   3  45 N21G26    30.27R WCI   6
HARLAN *       CLEAR     18   0  45 N14       30.37R WCI   4
LAMONI         CLEAR     25   5  42 NW16      30.26R WCI  12
6HR MIN TEMP:  24; 6HR MAX TEMP:  29;

RED OAK *      CLEAR     23   0  36 NW17G23   30.31R WCI   9
SHENANDOAH *   CLEAR     25   0  33 N17G24    30.33R WCI  11
$$

IAZ047>049-059>061-072>074-084-050100-
   CENTRAL IOWA

CITY           SKY/WX    TMP DP  RH WIND       PRES   REMARKS
AMES           PTCLDY    18   4  54 NW20      30.29R WCI   2
6HR MIN TEMP:  18; 6HR MAX TEMP:  26; 6HR PCP: TRACE;

ANKENY *       CLEAR     19   3  49 NW18G24   30.29R WCI   4
BOONE *        CLEAR     18   1  49 NW13G24   30.28R WCI   4
CHARITON *     PTCLDY    25   5  42 NW21      30.26R WCI  10
DES MOINES     PTCLDY    22   1  40 NW18G25   30.29R WCI   7
6HR MIN TEMP:  22; 6HR MAX TEMP:  30;

GRINNELL *     MOCLDY    20  14  77 NW12      30.25S WCI   8
6HR MIN TEMP:  17; 6HR MAX TEMP:  23;

KNOXVILLE *    MOCLDY    25   5  42 NW20      30.24R WCI  11
MARSHALLTOWN   CLOUDY    13   7  77 N10       30.27R WCI   0
6HR MIN TEMP:  13; 6HR MAX TEMP:  20; 6HR PCP: TRACE;

NEWTON *       PTCLDY    21   3  45 NW15G22   30.25R WCI   8
PELLA *        PTCLDY    24  12  60 NW16      30.27R WCI  10
6HR MIN TEMP:  22; 6HR MAX TEMP:  28;

PERRY *          N/A     19   5  55 NW21G28   30.31R WCI   2
6HR MIN TEMP:  19; 6HR MAX TEMP:  29;

$$

IAZ004>006-015-016-023>025-035-036-050100-
   NORTH CENTRAL IOWA

CITY           SKY/WX    TMP DP  RH WIND       PRES   REMARKS
ALGONA *       FLURRIES  12 N/A N/A N16       30.29S WCI  -4
CLARION *      PTCLDY    12   3  67 NW13G21   30.28R WCI  -3
ESTHERVILLE    CLOUDY     7   0  73 N20       30.29R WCI -13
6HR MIN TEMP:   7; 6HR MAX TEMP:  14; 6HR PCP: TRACE;

FORT DODGE *   PTCLDY    14   0  52 NW8       30.30R WCI   3
6HR MIN TEMP:  14; 6HR MAX TEMP:  25;

MASON CITY     MOCLDY     9   0  67 NW14      30.28R WCI  -7
6HR MIN TEMP:   9; 6HR MAX TEMP:  15;

WEBSTER CITY * CLOUDY    14   7  73 N15       30.28R WCI  -1
IOWA FALLS *   CLOUDY    14   7  75 N8        30.28F WCI   3
6HR MIN TEMP:  14; 6HR MAX TEMP:  20;

$$

IAZ007>011-017>019-026>030-037>042-050>054-066-050100-
   NORTHEAST IOWA

CITY           SKY/WX    TMP DP  RH WIND       PRES   REMARKS
CEDAR RAPIDS   CLOUDY    14   5  67 N6        30.25S WCI   5
6HR MIN TEMP:  12; 6HR MAX TEMP:  16;

CHARLES CITY * PTCLDY    10   0  61 NW10      30.27S WCI  -3
CLINTON *      CLEAR     12   1  62 NW9       30.30R WCI   0
6HR MIN TEMP:  12; 6HR MAX TEMP:  18;

DECORAH *      FLURRIES  10   1  67 VRB5G12   30.26R WCI   2
DUBUQUE        CLEAR     10  -1  61 W10       30.24R WCI  -4
6HR MIN TEMP:  10; 6HR MAX TEMP:  15;

MONTICELLO *   CLEAR     12   0  57 NW9       30.26F WCI   0
OELWEIN *      CLEAR      9   0  66 N8        30.26F WCI  -4
WATERLOO       CLEAR     10   1  67 N8        30.27F WCI  -2
6HR MIN TEMP:  10; 6HR MAX TEMP:  16;

$$

IAZ064-065-067-068-078-050100-
   EAST CENTRAL IOWA

CITY           SKY/WX    TMP DP  RH WIND       PRES   REMARKS
DAVENPORT      CLEAR     14   3  61 NW8       30.27S WCI   3
6HR MIN TEMP:  13; 6HR MAX TEMP:  17;

IOWA CITY      CLEAR     16   3  56 NW7       30.29S WCI   6
6HR MIN TEMP:  15; 6HR MAX TEMP:  19;

MT. PLEASANT * PTCLDY    18   7  60 NE5       30.26F WCI  11
6HR MIN TEMP:  18; 6HR MAX TEMP:  22;

MUSCATINE *    CLEAR     19   3  49 NW8       30.30F WCI   9
QUAD CITIES    PTCLDY    17   1  49 NW9       30.28R WCI   6
6HR MIN TEMP:  16; 6HR MAX TEMP:  20;

$$

IAZ062-063-075>077-085>089-095>099-050100-
   SOUTHEAST IOWA

CITY           SKY/WX    TMP DP  RH WIND       PRES   REMARKS
BURLINGTON     PTCLDY    18   4  54 N7        30.27F WCI   9
6HR MIN TEMP:  17; 6HR MAX TEMP:  20;

FAIRFIELD *    PTCLDY    19   7  58 NE7       30.25F WCI  10
FORT MADISON * FAIR      19   7  58 NE5       30.28F WCI  13
KEOKUK *       PTCLDY    21   3  45 CALM      30.28F
CENTERVILLE *  FAIR      25   9  50 W5        30.25R WCI  19
OTTUMWA        PTCLDY    21   5  50 NW6       30.24F WCI  13
6HR MIN TEMP:  20; 6HR MAX TEMP:  26;

WASHINGTON *   PTCLDY    18  10  73 NE7       30.26F WCI   8
$$

ABBREVIATIONS USED IN REMARKS
   TC - TEMPERATURES IN CELSIUS
  WCI - WIND CHILL INDEX
   HX - HEAT INDEX
  VSB - VISIBILITY
$$


USA.gov is the U.S. government's official web portal to all federal, state and local government web resources and services.